Location: Casilda
(33.0440°S, 61.1680°W)
Time: 09:49:35
(UTC-03:00)

ISS - Pass Details

Date: 07 August 2022
Orbit: 412 x 420 km, 51.6° (Epoch: 13 August)

Event Time Altitude Azimuth Distance (km) Brightness Sun altitude
Exits shadow 05:46:00 11° 151° (SSE) 1,487 -0.7 -26.3°
Drops below altitude 10° 05:46:41 10° 139° (SE) 1,522 -0.5 -26.2°
Sets 05:50:22 0° 98° (E) 2,382 1.4 -25.4°
